Location: Cedar Brake
(32.2526°N, 97.8459°W)
Time: 20:37:28
(UTC+00:00)

Cosmos 1898 Rocket - Pass Details

Date: 22 April 2026
Orbit: 750 x 778 km, 74.0° (Epoch: 21 May)

Event Time Altitude Azimuth Distance (km) Brightness Sun altitude
Rises 10:48:36 0° 336° (NNW) 3,200 6.7 -13.9°
Reaches altitude 10° 10:51:01 10° 331° (NNW) 2,274 5.9 -13.4°
Maximum altitude 10:55:58 50° 258° (WSW) 958 3.6 -12.5°
Drops below altitude 10° 11:00:55 10° 183° (S) 2,271 5.7 -11.5°
Sets 11:03:20 0° 178° (S) 3,196 6.5 -11.0°
